Simultaneous Nadir Overpasses (SNOs) Predictions

Prediction of SNOs between METOP-C and LANDSAT-8 Satellite Orbit:

Table of predicted SNOs for the next 14.0 days since TLE Epoch: 11/9/2019
Index Date (METOP-C) Time (METOP-C) Lat,Lon (METOP-C) SZA (METOP-C ) Date (LANDSAT-8) Time (LANDSAT-8) Lat,Lon (LANDSAT-8) SZA (LANDSAT-8 ) Distance(km) Time Diff (sec)
1 11/11/2019 17:43:29 -81.16, 134.67 78.95 11/11/2019 17:43:36 -81.16, 134.66 78.95 0.07 7
2 11/11/2019 18:34:08 81.18, -57.36 101.15 11/11/2019 18:33:01 81.19, -57.24 101.13 2.20 67
3 11/14/2019 12:27:11 81.15, 33.18 101.71 11/14/2019 12:28:25 81.14, 33.03 101.72 2.91 74
4 11/14/2019 13:17:51 -81.16,-159.18 78.24 11/14/2019 13:17:51 -81.16,-159.00 78.22 3.06 0
5 11/14/2019 14:08:29 81.19, 9.20 101.90 11/14/2019 14:07:16 81.18, 9.06 101.85 2.33 73
6 11/17/2019 08:01:31 81.15, 99.74 102.43 11/17/2019 08:02:38 81.15, 99.68 102.45 1.13 67
7 11/17/2019 08:52:10 -81.17, -92.27 77.49 11/17/2019 08:52:04 -81.17, -92.32 77.50 0.98 6
8 11/20/2019 03:35:52 81.16, 166.30 103.09 11/20/2019 03:36:52 81.16, 166.31 103.12 0.58 60
9 11/20/2019 04:26:32 -81.16, -26.11 76.87 11/20/2019 04:26:19 -81.16, -26.04 76.87 1.19 13
10 11/22/2019 23:10:14 81.15,-127.52 103.66 11/22/2019 23:11:07 81.15,-127.46 103.69 0.97 53




NCC Satellite Simultaneous Nadir Overpasses (SNOs) Prediction Service
